Colby, KS

3:54 PM CDT on May 26, 2018 (GMT -0500)
Shaltz

Weather History for KCBK - October, 2013

Change the Weather History Date:

Tuesday, October 15, 2013

  Actual Average (KGLD) Record (KGLD)
Temperature  
Mean Temperature 42 °F -  
Max Temperature 51 °F 65 °F 89 °F (1938)
Min Temperature 32 °F 37 °F 16 °F (1966)
Degree Days  
Heating Degree Days 24    
Moisture  
Dew Point 33 °F    
Average Humidity 75    
Maximum Humidity 100    
Minimum Humidity 50    
Precipitation  
Precipitation 0.00 in - - ()
Sea Level Pressure  
Sea Level Pressure 30.16 in    
Wind  
Wind Speed 20 mph (NW)    
Max Wind Speed 29 mph    
Max Gust Speed 40 mph    
Visibility 10 miles    
Events      
Averages and records for this station are not official NWS values.
T = Trace of Precipitation, MM = Missing Value Source: NWS Daily Summary

Daily Weather History Graph

Daily Weather History Graph

Search for Another Location

Airport or City:

Astronomy

Oct. 15, 2013 Rise Set
Actual Time 7:54 AM CDT 7:04 PM CDT
Civil Twilight 7:27 AM CDT 7:31 PM CDT
Nautical Twilight 6:56 AM CDT 8:02 PM CDT
Astronomical Twilight 6:25 AM CDT 8:33 PM CDT
Moon 5:10 PM CDT (10/15) 4:20 AM CDT (10/15)
Length of Visible Light 12h 04m
Length of Day
11h 10m
Waxing Gibbous, 88% of the Moon is Illuminated
Oct 15
Waxing Gibbous
Oct 18
Full
Oct 26
Last Quarter
Nov 3
New
Nov 9
First Quarter

Hourly Weather History & Observations

Time (CDT) Temp. Windchill Dew Point Humidity Pressure Visibility Wind Dir Wind Speed Gust Speed Precip Events Conditions
12:15 AM 41.0 °F 31.9 °F 35.6 °F 81% 30.07 in 10.0 mi NW 19.6 mph 24.2 mph N/A   Clear
12:35 AM 41.0 °F 31.9 °F 35.6 °F 81% 30.07 in 10.0 mi NW 19.6 mph 26.5 mph N/A   Clear
12:55 AM 41.0 °F 31.6 °F 35.6 °F 81% 30.07 in 10.0 mi NW 20.7 mph 27.6 mph N/A   Clear
1:15 AM 41.0 °F 31.6 °F 35.6 °F 81% 30.07 in 10.0 mi NW 20.7 mph 28.8 mph N/A   Clear
1:35 AM 41.0 °F 31.6 °F 35.6 °F 81% 30.07 in 10.0 mi NW 20.7 mph 24.2 mph N/A   Clear
1:55 AM 39.2 °F 29.0 °F 35.6 °F 87% 30.07 in 10.0 mi NW 21.9 mph 31.1 mph N/A   Clear
2:15 AM 41.0 °F 30.9 °F 33.8 °F 76% 30.07 in 10.0 mi NW 24.2 mph 31.1 mph N/A   Clear
2:35 AM 39.2 °F 28.7 °F 33.8 °F 81% 30.06 in 10.0 mi NW 23.0 mph 33.4 mph N/A   Clear
2:55 AM 39.2 °F 28.0 °F 33.8 °F 81% 30.06 in 10.0 mi NW 26.5 mph 34.5 mph N/A   Clear
3:15 AM 39.2 °F 28.5 °F 33.8 °F 81% 30.07 in 10.0 mi NW 24.2 mph 34.5 mph N/A   Clear
3:35 AM 39.2 °F 28.3 °F 33.8 °F 81% 30.07 in 10.0 mi NW 25.3 mph 34.5 mph N/A   Clear
3:55 AM 37.4 °F 26.4 °F 33.8 °F 87% 30.07 in 10.0 mi NW 23.0 mph 31.1 mph N/A   Clear
4:15 AM 37.4 °F 26.9 °F 33.8 °F 87% 30.09 in 10.0 mi NW 20.7 mph 28.8 mph N/A   Clear
4:35 AM 37.4 °F 26.9 °F 33.8 °F 87% 30.09 in 10.0 mi NW 20.7 mph 29.9 mph N/A   Clear
4:55 AM 37.4 °F 25.6 °F 33.8 °F 87% 30.09 in 10.0 mi NW 26.5 mph 33.4 mph N/A   Clear
5:15 AM 37.4 °F 25.9 °F 33.8 °F 87% 30.09 in 10.0 mi NW 25.3 mph 33.4 mph N/A   Clear
5:35 AM 37.4 °F 26.1 °F 33.8 °F 87% 30.09 in 10.0 mi NW 24.2 mph 40.3 mph N/A   Clear
5:55 AM 37.4 °F 26.6 °F 33.8 °F 87% 30.11 in 10.0 mi NW 21.9 mph 29.9 mph N/A   Clear
6:15 AM 37.4 °F 27.2 °F 33.8 °F 87% 30.12 in 10.0 mi NW 19.6 mph 25.3 mph N/A   Clear
6:35 AM 37.4 °F 25.9 °F 32.0 °F 81% 30.12 in 10.0 mi NW 25.3 mph 29.9 mph N/A   Clear
6:55 AM 37.4 °F 27.2 °F 32.0 °F 81% 30.13 in 10.0 mi NW 19.6 mph 27.6 mph N/A   Clear
7:15 AM 37.4 °F 27.5 °F 32.0 °F 81% 30.14 in 10.0 mi NW 18.4 mph 25.3 mph N/A   Clear
7:35 AM 35.6 °F 25.2 °F 32.0 °F 87% 30.15 in 10.0 mi NW 18.4 mph 23.0 mph N/A   Clear
7:55 AM 35.6 °F 25.5 °F 32.0 °F 87% 30.17 in 10.0 mi NW 17.3 mph 24.2 mph N/A   Clear
8:15 AM 35.6 °F 25.2 °F 33.8 °F 93% 30.16 in 10.0 mi NW 18.4 mph 23.0 mph N/A   Clear
8:35 AM 37.4 °F 27.5 °F 33.8 °F 87% 30.17 in 10.0 mi NW 18.4 mph 23.0 mph N/A   Clear
8:55 AM 37.4 °F 27.5 °F 33.8 °F 87% 30.18 in 10.0 mi NW 18.4 mph 24.2 mph N/A   Clear
9:15 AM - - - N/A% - - North - - N/A   Unknown
9:35 AM 41.0 °F 30.7 °F 33.8 °F 76% 30.20 in 10.0 mi NW 25.3 mph 32.2 mph N/A   Clear
9:55 AM 42.8 °F 33.5 °F 33.8 °F 70% 30.21 in 10.0 mi NW 23.0 mph 31.1 mph N/A   Clear
10:15 AM 42.8 °F 34.8 °F 33.8 °F 70% 30.21 in 10.0 mi NW 17.3 mph 28.8 mph N/A   Clear
10:35 AM 44.6 °F 35.5 °F 33.8 °F 66% 30.21 in 10.0 mi NW 25.3 mph 32.2 mph N/A   Clear
11:15 AM 46.4 °F 37.9 °F 33.8 °F 62% 30.22 in 10.0 mi NW 25.3 mph 34.5 mph N/A   Scattered Clouds
11:35 AM 46.4 °F 37.5 °F 33.8 °F 62% 30.21 in 10.0 mi NW 27.6 mph 33.4 mph N/A   Scattered Clouds
11:55 AM 46.4 °F 37.9 °F 33.8 °F 62% 30.22 in 10.0 mi NNW 25.3 mph 36.8 mph N/A   Scattered Clouds
12:15 PM 48.2 °F - 33.8 °F 58% 30.22 in 10.0 mi NNW 25.3 mph 33.4 mph N/A   Scattered Clouds
12:35 PM 48.2 °F - 33.8 °F 58% 30.22 in 10.0 mi NW 25.3 mph 36.8 mph N/A   Scattered Clouds
12:55 PM 48.2 °F - 33.8 °F 58% 30.21 in 10.0 mi NNW 25.3 mph 36.8 mph N/A   Scattered Clouds
1:15 PM 48.2 °F - 33.8 °F 58% 30.20 in 10.0 mi NW 25.3 mph 34.5 mph N/A   Scattered Clouds
1:35 PM 50.0 °F - 33.8 °F 54% 30.20 in 10.0 mi NW 24.2 mph 34.5 mph N/A   Scattered Clouds
1:55 PM 50.0 °F - 33.8 °F 54% 30.19 in 10.0 mi NNW 21.9 mph 31.1 mph N/A   Scattered Clouds
2:15 PM 50.0 °F - 33.8 °F 54% 30.18 in 10.0 mi NW 20.7 mph 32.2 mph N/A   Mostly Cloudy
2:35 PM 51.8 °F - 35.6 °F 54% 30.18 in 10.0 mi NW 24.2 mph 32.2 mph N/A   Scattered Clouds
2:55 PM 51.8 °F - 33.8 °F 50% 30.18 in 10.0 mi NNW 25.3 mph 34.5 mph N/A   Mostly Cloudy
3:15 PM 50.0 °F - 33.8 °F 54% 30.17 in 10.0 mi NW 23.0 mph 32.2 mph N/A   Scattered Clouds
3:35 PM 50.0 °F - 33.8 °F 54% 30.17 in 10.0 mi NNW 19.6 mph 33.4 mph N/A   Scattered Clouds
3:55 PM 51.8 °F - 33.8 °F 50% 30.17 in 10.0 mi NNW 23.0 mph 31.1 mph N/A   Scattered Clouds
4:15 PM 50.0 °F - 33.8 °F 54% 30.17 in 10.0 mi NW 28.8 mph 34.5 mph N/A   Mostly Cloudy
4:35 PM 51.8 °F - 33.8 °F 50% 30.18 in 10.0 mi NNW 24.2 mph 31.1 mph N/A   Overcast
4:55 PM 48.2 °F - 33.8 °F 58% 30.18 in 10.0 mi NNW 19.6 mph 31.1 mph N/A   Mostly Cloudy
5:15 PM 48.2 °F - 32.0 °F 54% 30.17 in 10.0 mi NNW 23.0 mph 31.1 mph N/A   Scattered Clouds
5:35 PM 46.4 °F 38.7 °F 33.8 °F 62% 30.17 in 10.0 mi NNW 20.7 mph 27.6 mph N/A   Scattered Clouds
5:55 PM 46.4 °F 38.3 °F 32.0 °F 57% 30.17 in 10.0 mi NW 23.0 mph - N/A   Scattered Clouds
6:15 PM 44.6 °F 36.6 °F 32.0 °F 61% 30.17 in 10.0 mi NNW 19.6 mph 26.5 mph N/A   Clear
6:35 PM 44.6 °F 36.6 °F 32.0 °F 61% 30.18 in 10.0 mi NNW 19.6 mph 24.2 mph N/A   Clear
6:55 PM 42.8 °F 36.2 °F 32.0 °F 66% 30.18 in 10.0 mi NNW 12.7 mph - N/A   Clear
7:15 PM 42.8 °F 37.0 °F 32.0 °F 66% 30.19 in 10.0 mi NNW 10.4 mph - N/A   Clear
7:55 PM 41.0 °F 36.4 °F 32.0 °F 70% 30.20 in 10.0 mi NNW 6.9 mph - N/A   Mostly Cloudy
8:15 PM 41.0 °F 35.2 °F 33.8 °F 76% 30.20 in 10.0 mi NW 9.2 mph - N/A   Overcast
8:35 PM 41.0 °F 35.8 °F 33.8 °F 76% 30.21 in 10.0 mi NW 8.1 mph - N/A   Overcast
8:55 PM 37.4 °F 32.1 °F 32.0 °F 81% 30.21 in 10.0 mi WNW 6.9 mph - N/A   Scattered Clouds
9:15 PM 35.6 °F 30.7 °F 32.0 °F 87% 30.22 in 10.0 mi WNW 5.8 mph - N/A   Clear
9:35 PM 33.8 °F 27.7 °F 32.0 °F 93% 30.23 in 10.0 mi WNW 6.9 mph - N/A   Clear
9:55 PM 32.0 °F 24.2 °F 32.0 °F 100% 30.23 in 10.0 mi NW 9.2 mph - N/A   Clear
10:15 PM 33.8 °F 27.7 °F 32.0 °F 93% 30.23 in 10.0 mi NW 6.9 mph - N/A   Clear
10:35 PM 32.0 °F 26.4 °F 32.0 °F 100% 30.24 in 10.0 mi WNW 5.8 mph - N/A   Clear
10:55 PM 32.0 °F 25.6 °F 32.0 °F 100% 30.25 in 10.0 mi WNW 6.9 mph - N/A   Clear
11:15 PM 32.0 °F 26.4 °F 32.0 °F 100% 30.25 in 10.0 mi West 5.8 mph - N/A   Clear
11:35 PM 32.0 °F 26.4 °F 32.0 °F 100% 30.24 in 10.0 mi WNW 5.8 mph - N/A   Clear
11:55 PM 32.0 °F 25.6 °F 32.0 °F 100% 30.24 in 10.0 mi WNW 6.9 mph - N/A   Clear